Location: Newark
(51.2000°N, 58.6167°E)
Time: 00:42:41
(UTC+00:00)

ISS - Pass Details

Date: 26 September 2020
Orbit: 417 x 420 km, 51.6° (Epoch: 27 October)

Event Time Altitude Azimuth Distance (km) Brightness Sun altitude
Rises 15:07:45 0° 267° (W) 2,367 1.7 -12.3°
Reaches altitude 10° 15:09:51 10° 269° (W) 1,504 0.4 -12.6°
Maximum altitude 15:13:13 81° 355° (N) 431 -3.7 -13.1°
Enters shadow 15:15:09 24° 83° (E) 924 -2.6 -13.4°
